Location: *
(40.7190°N, 4.2480°W)
Time: 08:51:01
(UTC+00:00)

COSMO-SKYMED 1 - Pass Details

Date: 18 February 2020
Orbit: 621 x 623 km, 97.9° (Epoch: 31 March)

Event Time Altitude Azimuth Distance (km) Brightness Sun altitude
Rises 05:52:22 0° 179° (S) 2,888 6.0 -14.9°
Reaches altitude 10° 05:54:36 10° 185° (S) 1,987 5.1 -14.5°
Maximum altitude 05:58:48 49° 260° (W) 809 2.7 -13.7°
Drops below altitude 10° 06:03:02 10° 336° (NNW) 2,002 4.9 -12.9°
Sets 06:05:18 0° 342° (NNW) 2,914 5.8 -12.5°
